This is the latest recevied weather packets stored in our database for station/object K0QJ. If no packets are shown the sender has not sent any weather packets the latest 10 day(s).
| Time | Temp. | Humidity | Pressure | Rain* | Wind** | Luminosity | Snow |
|---|---|---|---|---|---|---|---|
| 1778133975 | 10° C | 60% | 1016.9 hPa | 0 mm | - | 0 W/m² | - |
| 1778133671 | 10° C | 61% | 1016.7 hPa | 0 mm | - | 0 W/m² | - |
| 1778133367 | 10° C | 62% | 1016.8 hPa | 0 mm | - | 0 W/m² | - |
| 1778133063 | 10° C | 62% | 1016.7 hPa | 0 mm | - | 0 W/m² | - |
| 1778132759 | 10° C | 59% | 1016.7 hPa | 0 mm | - | 0 W/m² | - |
| 1778132456 | 9.44° C | 59% | 1016.9 hPa | 0 mm | - | 0 W/m² | - |
| 1778132154 | 9.44° C | 60% | 1016.9 hPa | 0 mm | - | 0 W/m² | - |
| 1778131853 | 9.44° C | 60% | 1016.8 hPa | 0 mm | - | 0 W/m² | - |
| 1778131550 | 9.44° C | 61% | 1016.7 hPa | 0 mm | - | 0 W/m² | - |
| 1778131246 | 9.44° C | 62% | 1016.8 hPa | 0 mm | - | 0 W/m² | - |
| 1778130944 | 9.44° C | 63% | 1016.8 hPa | 0 mm | - | 0 W/m² | - |
| 1778130641 | 8.89° C | 62% | 1016.8 hPa | 0 mm | - | 0 W/m² | - |
| 1778130337 | 8.89° C | 62% | 1017 hPa | 0 mm | - | 0 W/m² | - |
| 1778130034 | 8.89° C | 63% | 1016.8 hPa | 0 mm | - | 0 W/m² | - |
| 1778129730 | 8.89° C | 63% | 1016.8 hPa | 0 mm | - | 0 W/m² | - |
| 1778129428 | 8.89° C | 62% | 1016.9 hPa | 0 mm | - | 0 W/m² | - |
| 1778129124 | 9.44° C | 62% | 1016.9 hPa | 0 mm | - | 0 W/m² | - |
| 1778128821 | 9.44° C | 61% | 1016.8 hPa | 0 mm | - | 0 W/m² | - |
| 1778128517 | 9.44° C | 60% | 1016.7 hPa | 0 mm | - | 0 W/m² | - |
| 1778128215 | 9.44° C | 62% | 1016.8 hPa | 0 mm | - | 0 W/m² | - |
| 1778127910 | 9.44° C | 61% | 1017 hPa | 0 mm | - | 0 W/m² | - |
| 1778127606 | 9.44° C | 61% | 1016.8 hPa | 0 mm | - | 0 W/m² | - |
| 1778127303 | 9.44° C | 59% | 1016.6 hPa | 0 mm | - | 0 W/m² | - |
| 1778127000 | 9.44° C | 61% | 1016.7 hPa | 0 mm | - | 0 W/m² | - |
| 1778126696 | 9.44° C | 61% | 1017.1 hPa | 0 mm | - | 0 W/m² | - |
* Rain latest hour (hover to see other rain measurements)
** Current wind speed in m/s (hover to see current wind gust speed)